Weather History for KJKJ - November, 2012

Change the Weather History Date:

Friday, November 9, 2012

  Actual Average (KFAR) Record (KFAR)
Temperature  
Mean Temperature 36 °F 33 °F  
Max Temperature 39 °F 42 °F 66 °F (2010)
Min Temperature 32 °F 24 °F -1 °F (1979)
Degree Days  
Heating Degree Days 30 32  
Month to date heating degree days 268  
Since 1 July heating degree days 1144  
Cooling Degree Days 0 0  
Month to date cooling degree days 0  
Year to date cooling degree days 551  
Moisture  
Dew Point 33 °F    
Average Humidity 90    
Maximum Humidity 100    
Minimum Humidity 87    
Precipitation  
Precipitation 0.00 in 0.04 in 1.50 in (1977)
Month to date precipitation 0.34  
Year to date precipitation 21.12  
Snow  
Snow 0.00 in 0.20 in 5.60 in (1977)
Month to date snowfall 1.3  
Since 1 July snowfall 2.0  
Since 1 September snowfall 2.0  
Snow Depth -    
Sea Level Pressure  
Sea Level Pressure 30.06 in    
Wind  
Wind Speed 15 mph (ENE)    
Max Wind Speed 22 mph    
Max Gust Speed 28 mph    
Visibility 10 miles    
Events      
T = Trace of Precipitation, MM = Missing Value Source: NWS Daily Summary

Daily Weather History Graph

Daily Weather History Graph

Search for Another Location

Airport or City:

Trip Planner

Search our weather history database for the weather conditions in past years. The results will help you decide how hot, cold, wet, or windy it might be!

Date:

Astronomy

Nov. 09, 2012 Rise Set
Actual Time 7:21 AM CST 4:58 PM CST
Civil Twilight 6:49 AM CST 5:31 PM CST
Nautical Twilight 6:12 AM CST 6:07 PM CST
Astronomical Twilight 5:37 AM CST 6:43 PM CST
Moon 2:04 AM CST (11/9) 2:27 PM CST (11/9)
Length of Visible Light 10h 42m
Length of Day
9h 37m
Waning Crescent, 23% of the Moon is Illuminated
Nov 9
Waning Crescent
Nov 13
New
Nov 20
First Quarter
Nov 28
Full
Dec 6
Last Quarter

Hourly Weather History & Observations

Time (CST) Temp. Windchill Dew Point Humidity Pressure Visibility Wind Dir Wind Speed Gust Speed Precip Events Conditions
12:15 AM 33.8 °F 23.2 °F 33.8 °F 100% 30.15 in 7.0 mi North 17.3 mph - N/A   Drizzle
12:35 AM 33.8 °F 23.2 °F 33.8 °F 100% 30.15 in 7.0 mi NNE 17.3 mph 20.7 mph N/A   Light Drizzle
12:54 AM 33.8 °F 24.3 °F 33.8 °F 100% 30.15 in 10.0 mi NNE 13.8 mph - N/A   Light Drizzle
1:15 AM 33.8 °F 22.8 °F 32.0 °F 93% 30.15 in 10.0 mi NNE 18.4 mph - N/A   Drizzle
1:34 AM 33.8 °F 22.5 °F 32.0 °F 93% 30.15 in 10.0 mi NNE 19.6 mph 23.0 mph N/A   Overcast
1:55 AM 33.8 °F 22.8 °F 30.2 °F 87% 30.14 in 10.0 mi NNE 18.4 mph 26.5 mph N/A   Overcast
2:15 AM 33.8 °F 22.2 °F 30.2 °F 87% 30.15 in 10.0 mi NNE 20.7 mph - N/A   Overcast
2:34 AM 32.0 °F 20.8 °F 30.2 °F 93% 30.15 in 10.0 mi NNE 17.3 mph 23.0 mph N/A   Overcast
2:55 AM 32.0 °F 20.5 °F 30.2 °F 93% 30.15 in 10.0 mi NNE 18.4 mph - N/A   Overcast
3:15 AM 32.0 °F 21.6 °F 30.2 °F 93% 30.14 in 10.0 mi NE 15.0 mph 23.0 mph N/A   Overcast
3:34 AM 32.0 °F 21.6 °F 30.2 °F 93% 30.14 in 10.0 mi NE 15.0 mph 21.9 mph N/A   Overcast
3:55 AM 33.8 °F 23.5 °F 30.2 °F 87% 30.14 in 10.0 mi NE 16.1 mph 23.0 mph N/A   Overcast
4:15 AM 33.8 °F 23.2 °F 30.2 °F 87% 30.13 in 10.0 mi NNE 17.3 mph - N/A   Overcast
4:34 AM 32.0 °F 22.1 °F 30.2 °F 93% 30.13 in 10.0 mi NE 13.8 mph 19.6 mph N/A   Overcast
4:55 AM 32.0 °F 22.1 °F 30.2 °F 93% 30.13 in 10.0 mi NE 13.8 mph 19.6 mph N/A   Overcast
5:15 AM 32.0 °F 21.2 °F 30.2 °F 93% 30.14 in 10.0 mi NE 16.1 mph - N/A   Overcast
5:35 AM 32.0 °F 21.6 °F 30.2 °F 93% 30.14 in 10.0 mi NE 15.0 mph 21.9 mph N/A   Overcast
5:55 AM 32.0 °F 21.6 °F 30.2 °F 93% 30.13 in 10.0 mi NE 15.0 mph - N/A   Overcast
6:14 AM 32.0 °F 21.2 °F 30.2 °F 93% 30.13 in 10.0 mi NE 16.1 mph - N/A   Overcast
6:35 AM 32.0 °F 21.6 °F 30.2 °F 93% 30.12 in 10.0 mi NE 15.0 mph - N/A   Overcast
6:55 AM 32.0 °F 21.6 °F 30.2 °F 93% 30.11 in 10.0 mi NE 15.0 mph 21.9 mph N/A   Overcast
7:14 AM 33.8 °F 24.8 °F 32.0 °F 93% 30.10 in 10.0 mi NE 12.7 mph 20.7 mph N/A   Overcast
7:35 AM 33.8 °F 24.3 °F 30.2 °F 87% 30.11 in 10.0 mi NE 13.8 mph - N/A   Overcast
7:55 AM 33.8 °F 25.3 °F 32.0 °F 93% 30.12 in 10.0 mi NE 11.5 mph - N/A   Overcast
8:14 AM 33.8 °F 25.3 °F 32.0 °F 93% 30.12 in 10.0 mi NE 11.5 mph - N/A   Overcast
8:35 AM 33.8 °F 25.8 °F 33.8 °F 100% 30.12 in 10.0 mi NE 10.4 mph - N/A   Overcast
8:55 AM 33.8 °F 26.4 °F 33.8 °F 100% 30.13 in 10.0 mi NE 9.2 mph - N/A   Overcast
9:14 AM 35.6 °F 27.5 °F 33.8 °F 93% 30.12 in 10.0 mi NE 11.5 mph - N/A   Overcast
9:35 AM 35.6 °F 26.6 °F 32.0 °F 87% 30.11 in 10.0 mi ENE 13.8 mph 18.4 mph N/A   Overcast
9:55 AM 35.6 °F 26.6 °F 32.0 °F 87% 30.11 in 10.0 mi ENE 13.8 mph 19.6 mph N/A   Overcast
10:14 AM 35.6 °F 27.1 °F 32.0 °F 87% 30.11 in 10.0 mi ENE 12.7 mph - N/A   Overcast
10:35 AM 35.6 °F 26.2 °F 33.8 °F 93% 30.11 in 10.0 mi ENE 15.0 mph - N/A   Overcast
10:55 AM 35.6 °F 25.9 °F 33.8 °F 93% 30.10 in 10.0 mi ENE 16.1 mph - N/A   Overcast
11:15 AM 37.4 °F 29.3 °F 33.8 °F 87% 30.09 in 10.0 mi ENE 12.7 mph - N/A   Overcast
11:35 AM 37.4 °F 28.9 °F 33.8 °F 87% 30.08 in 10.0 mi ENE 13.8 mph - N/A   Overcast
11:54 AM 37.4 °F 27.8 °F 33.8 °F 87% 30.08 in 10.0 mi ENE 17.3 mph - N/A   Overcast
12:15 PM 37.4 °F 27.8 °F 33.8 °F 87% 30.06 in 10.0 mi ENE 17.3 mph 20.7 mph N/A   Overcast
12:34 PM 37.4 °F 27.8 °F 33.8 °F 87% 30.05 in 10.0 mi ENE 17.3 mph 20.7 mph N/A   Overcast
12:54 PM 37.4 °F 26.6 °F 33.8 °F 87% 30.03 in 10.0 mi East 21.9 mph 26.5 mph N/A   Overcast
1:15 PM 37.4 °F 26.6 °F 33.8 °F 87% 30.03 in 10.0 mi ENE 21.9 mph 27.6 mph N/A   Overcast
1:34 PM 37.4 °F 26.6 °F 33.8 °F 87% 30.03 in 10.0 mi ENE 21.9 mph 27.6 mph N/A   Overcast
1:55 PM 37.4 °F 27.2 °F 33.8 °F 87% 30.03 in 10.0 mi East 19.6 mph 24.2 mph N/A   Overcast
2:15 PM 37.4 °F 28.2 °F 33.8 °F 87% 30.03 in 10.0 mi East 16.1 mph - N/A   Mostly Cloudy
2:34 PM 37.4 °F 28.2 °F 33.8 °F 87% 30.02 in 10.0 mi East 16.1 mph 21.9 mph N/A   Mostly Cloudy
2:55 PM 37.4 °F 28.2 °F 33.8 °F 87% 30.02 in 10.0 mi East 16.1 mph 20.7 mph N/A   Overcast
3:15 PM 37.4 °F 28.5 °F 33.8 °F 87% 30.02 in 10.0 mi ENE 15.0 mph - N/A   Overcast
3:35 PM 37.4 °F 29.3 °F 33.8 °F 87% 30.01 in 10.0 mi East 12.7 mph - N/A   Overcast
3:55 PM 37.4 °F 28.2 °F 33.8 °F 87% 30.01 in 10.0 mi East 16.1 mph 19.6 mph N/A   Overcast
4:14 PM 37.4 °F 28.5 °F 33.8 °F 87% 30.01 in 10.0 mi East 15.0 mph 23.0 mph N/A   Overcast
4:35 PM 37.4 °F 28.9 °F 33.8 °F 87% 30.00 in 10.0 mi East 13.8 mph 20.7 mph N/A   Overcast
4:55 PM 37.4 °F 29.3 °F 33.8 °F 87% 30.00 in 10.0 mi East 12.7 mph - N/A   Overcast
5:14 PM 37.4 °F 29.8 °F 33.8 °F 87% 30.00 in 10.0 mi ENE 11.5 mph - N/A   Overcast
5:35 PM 37.4 °F 29.3 °F 33.8 °F 87% 30.00 in 10.0 mi ENE 12.7 mph - N/A   Overcast
5:55 PM 37.4 °F 29.3 °F 33.8 °F 87% 30.00 in 10.0 mi ENE 12.7 mph - N/A   Overcast
5:59 PM 37.4 °F 28.5 °F 33.8 °F 87% 29.99 in 10.0 mi ENE 15.0 mph - N/A   Overcast
6:35 PM 37.4 °F 29.8 °F 33.8 °F 87% 29.99 in 10.0 mi ENE 11.5 mph - N/A   Mostly Cloudy
6:54 PM 37.4 °F 30.8 °F 33.8 °F 87% 29.99 in 10.0 mi East 9.2 mph - N/A   Overcast
7:15 PM 37.4 °F 31.4 °F 33.8 °F 87% 29.98 in 10.0 mi East 8.1 mph - N/A   Overcast
7:35 PM 37.4 °F 31.4 °F 33.8 °F 87% 29.98 in 10.0 mi East 8.1 mph - N/A   Overcast
7:55 PM 39.2 °F 33.6 °F 35.6 °F 87% 29.98 in 10.0 mi East 8.1 mph - N/A   Overcast
8:15 PM 39.2 °F 33.0 °F 35.6 °F 87% 29.97 in 10.0 mi East 9.2 mph - N/A   Overcast
8:34 PM 39.2 °F 32.5 °F 35.6 °F 87% 29.98 in 10.0 mi East 10.4 mph - N/A   Overcast
8:55 PM 39.2 °F 32.0 °F 35.6 °F 87% 29.96 in 10.0 mi East 11.5 mph - N/A   Overcast
9:15 PM 39.2 °F 32.5 °F 35.6 °F 87% 29.96 in 10.0 mi ESE 10.4 mph - N/A   Overcast
9:34 PM 39.2 °F 32.0 °F 35.6 °F 87% 29.95 in 10.0 mi East 11.5 mph - N/A   Overcast
9:55 PM 39.2 °F 32.5 °F 35.6 °F 87% 29.94 in 10.0 mi East 10.4 mph - N/A   Overcast
10:15 PM 39.2 °F 32.0 °F 35.6 °F 87% 29.93 in 10.0 mi ESE 11.5 mph 17.3 mph N/A   Overcast
10:34 PM 39.2 °F 33.0 °F 37.4 °F 93% 29.92 in 10.0 mi ESE 9.2 mph - N/A   Overcast
10:55 PM 39.2 °F 34.2 °F 37.4 °F 93% 29.92 in 10.0 mi ESE 6.9 mph - N/A   Overcast
11:15 PM 39.2 °F 33.0 °F 37.4 °F 93% 29.91 in 10.0 mi ESE 9.2 mph - N/A   Overcast
11:34 PM 39.2 °F 33.0 °F 37.4 °F 93% 29.90 in 10.0 mi ESE 9.2 mph - N/A   Overcast
11:55 PM 39.2 °F 35.0 °F 37.4 °F 93% 29.90 in 10.0 mi East 5.8 mph - N/A   Overcast